Bradford, PA

6:33 PM EDT on August 17, 2017 (GMT -0400)
Bradford Regional

Weather History for KBFD - March, 2012

Change the Weather History Date:

Sunday, March 4, 2012

  Actual Average Record
Temperature  
Mean Temperature 24 °F 27 °F  
Max Temperature 28 °F 37 °F 65 °F (1974)
Min Temperature 19 °F 18 °F -13 °F (2014)
Degree Days  
Heating Degree Days 42 32  
Month to date heating degree days 130  
Since 1 July heating degree days 5700  
Cooling Degree Days 0 0  
Month to date cooling degree days 0  
Year to date cooling degree days 0  
Moisture  
Dew Point 18 °F    
Average Humidity 72    
Maximum Humidity 86    
Minimum Humidity 56    
Precipitation  
Precipitation 0.01 in 0.10 in 1.27 in (1964)
Month to date precipitation 0.39  
Year to date precipitation 6.03  
Sea Level Pressure  
Sea Level Pressure 29.66 in    
Wind  
Wind Speed 10 mph (West)    
Max Wind Speed 18 mph    
Max Gust Speed 28 mph    
Visibility 6 miles    
Events Fog , Snow    
T = Trace of Precipitation, MM = Missing Value Source: NWS Daily Summary

Daily Weather History Graph

Daily Weather History Graph

Search for Another Location

Airport or City:

Trip Planner

Search our weather history database for the weather conditions in past years. The results will help you decide how hot, cold, wet, or windy it might be!

Date:

Astronomy

Mar. 04, 2012 Rise Set
Actual Time 6:43 AM EST 6:09 PM EST
Civil Twilight 6:16 AM EST 6:36 PM EST
Nautical Twilight 5:43 AM EST 7:09 PM EST
Astronomical Twilight 5:11 AM EST 7:41 PM EST
Moon 2:16 PM EST (3/4) 4:05 AM EST (3/4)
Length of Visible Light 12h 20m
Length of Day
11h 25m
Waxing Gibbous, 83% of the Moon is Illuminated
Mar 4
Waxing Gibbous
Mar 8
Full
Mar 14
Last Quarter
Mar 22
New
Mar 30
First Quarter

Hourly Weather History & Observations

Time (EST) Temp. Windchill Dew Point Humidity Pressure Visibility Wind Dir Wind Speed Gust Speed Precip Events Conditions
12:53 AM 28.0 °F 18.6 °F 18.0 °F 66% 29.68 in 10.0 mi SW 10.4 mph 23.0 mph 0.00 in   Overcast
1:53 AM 28.0 °F 19.3 °F 17.1 °F 63% 29.68 in 10.0 mi WSW 9.2 mph - N/A   Mostly Cloudy
2:53 AM 27.0 °F 18.7 °F 18.0 °F 69% 29.66 in 10.0 mi West 8.1 mph - N/A   Overcast
3:22 AM 26.6 °F 17.5 °F 17.6 °F 69% 29.60 in 10.0 mi WSW 9.2 mph - 0.00 in   Overcast
3:53 AM 27.0 °F 16.1 °F 18.0 °F 69% 29.65 in 9.0 mi WSW 12.7 mph 20.7 mph 0.00 in Snow Light Snow
4:17 AM 28.4 °F 22.2 °F 17.6 °F 64% 29.59 in 10.0 mi Variable 5.8 mph - 0.00 in   Overcast
4:39 AM 26.6 °F 17.5 °F 21.2 °F 80% 29.61 in 1.8 mi West 9.2 mph - 0.00 in Snow Light Snow
4:47 AM 26.6 °F 16.8 °F 19.4 °F 74% 29.61 in 3.0 mi West 10.4 mph - 0.00 in Snow Light Snow
4:48 AM 26.1 °F 16.8 °F 19.9 °F 78% 29.67 in 4.0 mi West 9.2 mph - 0.00 in Snow Light Snow
5:03 AM 26.6 °F 15.2 °F 17.6 °F 69% 29.60 in 10.0 mi West 13.8 mph 25.3 mph 0.00 in   Overcast
5:53 AM 26.1 °F 20.5 °F 19.0 °F 75% 29.67 in 10.0 mi West 4.6 mph - 0.00 in   Overcast
6:00 AM 26.6 °F 22.6 °F 19.4 °F 74% 29.61 in 9.0 mi WSW 3.5 mph - 0.00 in Snow Light Snow
6:23 AM 26.6 °F 21.2 °F 17.6 °F 69% 29.61 in 10.0 mi Variable 4.6 mph - 0.00 in   Overcast
6:53 AM 26.1 °F 20.5 °F 17.1 °F 69% 29.68 in 10.0 mi West 4.6 mph - 0.00 in   Overcast
7:53 AM 26.1 °F 15.6 °F 19.0 °F 75% 29.66 in 10.0 mi West 11.5 mph 18.4 mph N/A   Overcast
8:20 AM 26.6 °F 19.1 °F 19.4 °F 74% 29.60 in 1.8 mi WSW 6.9 mph - 0.00 in Snow Light Snow
8:31 AM 26.6 °F 16.8 °F 19.4 °F 74% 29.60 in 1.5 mi West 10.4 mph - 0.00 in Snow Light Snow
8:48 AM 26.6 °F 18.2 °F 19.4 °F 74% 29.60 in 3.0 mi West 8.1 mph 20.7 mph 0.00 in Snow Light Snow
8:53 AM 27.0 °F 17.3 °F 19.9 °F 75% 29.66 in 6.0 mi West 10.4 mph - 0.00 in Snow Light Snow
9:19 AM 26.6 °F 16.2 °F 19.4 °F 74% 29.60 in 1.8 mi WSW 11.5 mph - 0.00 in Snow Light Snow
9:29 AM 26.6 °F 16.8 °F 19.4 °F 74% 29.61 in 0.5 mi West 10.4 mph 18.4 mph 0.00 in Snow Snow
9:50 AM 26.6 °F 18.2 °F 21.2 °F 80% 29.61 in 1.0 mi West 8.1 mph - 0.00 in Snow Light Snow
9:53 AM 27.0 °F 19.5 °F 21.0 °F 78% 29.67 in 1.8 mi West 6.9 mph - 0.00 in Snow Light Snow
10:06 AM 26.6 °F 16.8 °F 21.2 °F 80% 29.61 in 0.5 mi West 10.4 mph - 0.00 in Snow Snow
10:15 AM 26.6 °F 15.7 °F 21.2 °F 80% 29.61 in 0.2 mi West 12.7 mph 19.6 mph 0.01 in Snow Heavy Snow
10:22 AM 26.6 °F 19.1 °F 21.2 °F 80% 29.61 in 0.5 mi West 6.9 mph 17.3 mph 0.01 in Fog , Snow Light Snow
10:26 AM 26.6 °F 16.2 °F 21.2 °F 80% 29.61 in 1.0 mi West 11.5 mph 17.3 mph 0.01 in Snow Light Snow
10:29 AM 26.6 °F 17.5 °F 21.2 °F 80% 29.61 in 2.5 mi West 9.2 mph 17.3 mph 0.01 in Snow Light Snow
10:36 AM 26.6 °F 19.1 °F 19.4 °F 74% 29.61 in 8.0 mi Variable 6.9 mph - 0.01 in   Overcast
10:53 AM 28.9 °F 19.8 °F 19.0 °F 67% 29.67 in 10.0 mi West 10.4 mph 21.9 mph 0.01 in   Overcast
11:06 AM 28.4 °F 16.2 °F 17.6 °F 64% 29.61 in 10.0 mi West 17.3 mph 27.6 mph N/A   Overcast
11:53 AM 28.0 °F 15.7 °F 18.0 °F 66% 29.67 in 8.0 mi WNW 17.3 mph 24.2 mph 0.00 in Snow Light Snow
12:47 PM 26.6 °F 14.7 °F 17.6 °F 69% 29.62 in 2.5 mi WNW 15.0 mph 25.3 mph 0.00 in Snow Light Snow
12:53 PM 27.0 °F 13.9 °F 18.0 °F 69% 29.68 in 2.5 mi West 18.4 mph 25.3 mph 0.00 in Snow Light Snow
1:00 PM 26.6 °F 14.7 °F 17.6 °F 69% 29.61 in 3.0 mi West 15.0 mph 25.3 mph 0.00 in Snow Light Snow
1:38 PM 26.6 °F 16.8 °F 17.6 °F 69% 29.61 in 2.0 mi WNW 10.4 mph - 0.00 in Snow Light Snow
1:49 PM 26.6 °F 15.2 °F 15.8 °F 64% 29.61 in 7.0 mi West 13.8 mph 20.7 mph 0.00 in Snow Light Snow
1:53 PM 27.0 °F 17.3 °F 17.1 °F 66% 29.67 in 9.0 mi West 10.4 mph 20.7 mph 0.00 in   Overcast
2:53 PM 27.0 °F 15.2 °F 12.9 °F 56% 29.68 in 10.0 mi West 15.0 mph 25.3 mph 0.00 in   Overcast
3:53 PM 26.1 °F 14.0 °F 14.0 °F 60% 29.70 in 10.0 mi West 15.0 mph 25.3 mph 0.00 in   Overcast
4:07 PM 26.6 °F 15.7 °F 14.0 °F 59% 29.64 in 10.0 mi WNW 12.7 mph 24.2 mph N/A   Overcast
4:43 PM 24.8 °F 12.4 °F 14.0 °F 64% 29.65 in 9.0 mi WNW 15.0 mph 24.2 mph 0.00 in Snow Light Snow
4:53 PM 25.0 °F 14.2 °F 12.0 °F 58% 29.72 in 9.0 mi West 11.5 mph 25.3 mph 0.00 in   Overcast
5:17 PM 24.8 °F 12.4 °F 14.0 °F 64% 29.66 in 7.0 mi WNW 15.0 mph - 0.00 in Snow Light Snow
5:34 PM 24.8 °F 14.6 °F 17.6 °F 74% 29.66 in 2.0 mi WNW 10.4 mph - 0.00 in Snow Light Snow
5:40 PM 23.0 °F 12.4 °F 15.8 °F 74% 29.67 in 3.0 mi NW 10.4 mph - 0.00 in Snow Light Snow
5:53 PM 24.1 °F 13.1 °F 15.1 °F 69% 29.74 in 7.0 mi WNW 11.5 mph 20.7 mph 0.00 in Snow Light Snow
6:12 PM 24.8 °F 15.3 °F 15.8 °F 69% 29.67 in 2.5 mi WNW 9.2 mph 19.6 mph 0.00 in Snow Light Snow
6:35 PM 23.0 °F 12.4 °F 17.6 °F 80% 29.68 in 3.0 mi West 10.4 mph - 0.00 in Snow Light Snow
6:53 PM 23.0 °F 11.7 °F 17.1 °F 78% 29.75 in 3.0 mi West 11.5 mph - 0.00 in Snow Light Snow
6:56 PM 23.0 °F 13.1 °F 17.6 °F 80% 29.69 in 1.5 mi NW 9.2 mph - 0.00 in Snow Light Snow
7:00 PM 21.2 °F 9.5 °F 17.6 °F 86% 29.69 in 1.0 mi WNW 11.5 mph - 0.00 in Snow Light Snow
7:05 PM 21.2 °F 8.9 °F 17.6 °F 86% 29.69 in 1.2 mi WNW 12.7 mph 18.4 mph 0.00 in Snow Light Snow
7:20 PM 21.2 °F 8.3 °F 15.8 °F 80% 29.70 in 3.0 mi WNW 13.8 mph 24.2 mph 0.00 in Snow Light Snow
7:53 PM 21.9 °F 9.8 °F 15.1 °F 75% 29.78 in 4.0 mi WNW 12.7 mph 21.9 mph 0.00 in Snow Light Snow
8:53 PM 21.0 °F 9.3 °F 15.1 °F 78% 29.79 in 2.5 mi WNW 11.5 mph - 0.00 in Snow Light Snow
9:07 PM 21.2 °F 8.3 °F 15.8 °F 80% 29.72 in 5.0 mi WNW 13.8 mph 24.2 mph 0.00 in Snow Light Snow
9:53 PM 21.0 °F 9.3 °F 12.9 °F 71% 29.81 in 7.0 mi WNW 11.5 mph - 0.00 in Snow Light Snow
10:53 PM 19.9 °F 5.7 °F 12.0 °F 71% 29.81 in 7.0 mi West 16.1 mph 23.0 mph 0.00 in Snow Light Snow
11:53 PM 19.9 °F 8.6 °F 12.0 °F 71% 29.83 in 10.0 mi WNW 10.4 mph - 0.00 in   Overcast